Change the Weather History Date:

Tuesday, November 19, 2013

  Actual Average Record
Temperature  
Mean Temperature -10 °F -  
Max Temperature -2 °F 2 °F - ()
Min Temperature -17 °F -13 °F - ()
Degree Days  
Heating Degree Days 74    
Moisture  
Dew Point -14 °F    
Average Humidity 81    
Maximum Humidity 85    
Minimum Humidity 71    
Precipitation  
Precipitation 0.00 in 0.02 in - ()
Sea Level Pressure  
Sea Level Pressure 30.22 in    
Wind  
Wind Speed 3 mph ()    
Max Wind Speed 8 mph    
Max Gust Speed -    
Visibility 12.8 miles    
Events Fog , Snow    
T = Trace of Precipitation, MM = Missing Value Source: Averaged Metar Reports

Daily Weather History Graph

Daily Weather History Graph

Search for Another Location

Airport or City:

Trip Planner

Search our weather history database for the weather conditions in past years. The results will help you decide how hot, cold, wet, or windy it might be!

Date:

Astronomy

Nov. 19, 2013 Rise Set
Actual Time 9:05 AM MST 3:40 PM MST
Civil Twilight 8:08 AM MST 4:37 PM MST
Nautical Twilight 7:10 AM MST 5:35 PM MST
Astronomical Twilight 6:16 AM MST 6:28 PM MST
Moon 5:28 PM MST (11/19) 10:55 AM MST (11/19)
Length of Visible Light 8h 29m
Length of Day
6h 35m
Waning Gibbous, 96% of the Moon is Illuminated
Nov 19
Waning Gibbous
Nov 25
Last Quarter
Dec 2
New
Dec 9
First Quarter
Dec 17
Full

Hourly Weather History & Observations

Time (MST) Temp. Windchill Dew Point Humidity Pressure Visibility Wind Dir Wind Speed Gust Speed Precip Events Conditions
12:00 AM -9.4 °F -18.6 °F -13.0 °F 84% 30.25 in 15.0 mi North 3.5 mph - N/A   Ice Crystals
1:00 AM -11.2 °F - -14.8 °F 84% 30.25 in 15.0 mi ESE 2.3 mph - N/A   Ice Crystals
2:00 AM -11.2 °F - -16.6 °F 77% 30.24 in 15.0 mi SE 2.3 mph - N/A   Ice Crystals
3:00 AM -11.2 °F - -14.8 °F 84% 30.24 in 15.0 mi ESE 2.3 mph - N/A   Ice Crystals
4:00 AM -13.0 °F - -16.6 °F 84% 30.23 in 15.0 mi East 2.3 mph - N/A   Ice Crystals
4:17 AM -13.0 °F -22.7 °F -16.6 °F 84% 30.23 in 15.0 mi East 3.5 mph - N/A   Clear
5:00 AM -13 °F - -17 °F 72% 30.23 in 15 mi SE 5.8 mph - -  
5:00 AM -13.0 °F -28.6 °F -16.6 °F 84% 30.23 in 15.0 mi SE 6.9 mph - N/A   Clear
6:00 AM -14.8 °F -29.1 °F -20.2 °F 77% 30.23 in 15.0 mi North 5.8 mph - N/A   Clear
7:00 AM -11.2 °F -23.0 °F -14.8 °F 84% 30.23 in 15.0 mi NNE 4.6 mph - N/A   Ice Crystals
7:45 AM -9.4 °F - -13.0 °F 84% 30.22 in 15.0 mi Calm Calm - N/A   Ice Crystals
8:00 AM -9.4 °F - -14.8 °F 77% 30.21 in 0.8 mi East 2.3 mph - N/A   Ice Crystals
8:04 AM -9.4 °F - -13.0 °F 84% 30.21 in 0.5 mi East 2.3 mph - N/A Fog Ice Crystals
8:34 AM -9.4 °F - -13.0 °F 84% 30.21 in 1.0 mi Calm Calm - N/A   Ice Crystals
9:00 AM -11.2 °F -20.6 °F -16.6 °F 77% 30.22 in 1.0 mi North 3.5 mph - N/A   Ice Crystals
9:09 AM -11.2 °F -20.6 °F -14.8 °F 84% 30.21 in 0.8 mi NNE 3.5 mph - N/A   Ice Crystals
9:31 AM -11.2 °F -23.0 °F -14.8 °F 84% 30.21 in 0.5 mi NNE 4.6 mph - N/A Fog Ice Crystals
9:43 AM -11.2 °F -24.8 °F -16.6 °F 77% 30.22 in 15.0 mi North 5.8 mph - N/A   Partly Cloudy
10:00 AM -13.0 °F -25.1 °F -16.6 °F 84% 30.22 in 15.0 mi NNE 4.6 mph - N/A   Partly Cloudy
11:00 AM -9 °F - -13 °F 72% 30.21 in 15 mi ENE 2.3 mph - -   Partly Cloudy
11:00 AM -9.4 °F - -13.0 °F 84% 30.21 in 15.0 mi NE 2.3 mph - N/A   Partly Cloudy
12:00 PM -7.6 °F - -11.2 °F 84% 30.21 in 15.0 mi Calm Calm - N/A   Scattered Clouds
1:00 PM -4.0 °F - -7.6 °F 85% 30.20 in 15.0 mi NW 2.3 mph - N/A   Scattered Clouds
2:00 PM -2.2 °F -14.2 °F -5.8 °F 85% 30.20 in 15.0 mi North 5.8 mph - N/A   Mostly Cloudy
3:00 PM -4.0 °F -12.4 °F -7.6 °F 85% 30.20 in 15.0 mi NNW 3.5 mph - N/A   Scattered Clouds
4:00 PM -5.8 °F -18.4 °F -9.4 °F 84% 30.20 in 15.0 mi NW 5.8 mph - N/A   Mostly Cloudy
5:00 PM -6 °F - -10 °F 71% 30.20 in 15 mi North 5.8 mph - -   Mostly Cloudy
5:00 PM -5.8 °F -18.4 °F -11.2 °F 77% 30.20 in 15.0 mi North 5.8 mph - N/A   Mostly Cloudy
6:00 PM -5.8 °F -21.2 °F -11.2 °F 77% 30.21 in 15.0 mi North 8.1 mph - N/A   Overcast
7:00 PM -5.8 °F -18.4 °F -9.4 °F 84% 30.20 in 15.0 mi North 5.8 mph - N/A   Overcast
7:41 PM -7.6 °F -20.6 °F -11.2 °F 84% 30.20 in 15.0 mi North 5.8 mph - N/A Snow Light Snow
8:00 PM -5.8 °F -18.4 °F -9.4 °F 84% 30.20 in 15.0 mi North 5.8 mph - N/A   Overcast
8:41 PM -7.6 °F -18.8 °F -13.0 °F 77% 30.20 in 15.0 mi NNW 4.6 mph - N/A   Partly Cloudy
9:00 PM -9.4 °F -20.9 °F -14.8 °F 77% 30.21 in 15.0 mi NNW 4.6 mph - N/A   Scattered Clouds
10:00 PM -11.2 °F -24.8 °F -16.6 °F 77% 30.22 in 15.0 mi NNW 5.8 mph - N/A   Partly Cloudy
10:25 PM -11.2 °F -23.0 °F -14.8 °F 84% 30.22 in 15.0 mi NNW 4.6 mph - N/A   Ice Crystals
10:45 PM -11.2 °F -24.8 °F -14.8 °F 84% 30.22 in 15.0 mi North 5.8 mph - N/A   Scattered Clouds
11:00 PM -10 °F - -14 °F 71% 30.22 in 15 mi North 4.6 mph - - Snow Light Snow
11:00 PM -9.4 °F -20.9 °F -14.8 °F 77% 30.22 in 15.0 mi North 4.6 mph - N/A   Scattered Clouds